Cosmos 1220 - Orbit

View from above orbital plane
View from above orbital plane
View from above satellite
View from above satellite

Ground track
Ground track

The orbit data is extracted from the following two-line orbital elements,

1 12054U 80089A   13141.87666248  .00021063  00000-0  30059-3 0  2630
2 12054 064.9598 259.7245 0045526 278.4841 228.5469 15.55082717688149
Epoch (UTC): 21 May 2013 21:02:23
Eccentricity: 0.0045526
inclination: 64.9598°
perigee height: 371 km
apogee height: 433 km
right ascension of ascending node: 259.7245°
argument of perigee: 278.4841°
revolutions per day: 15.55082717
mean anomaly at epoch: 228.5469°
orbit number at epoch: 68814

The dashed part of the orbit path shows where the satellite is in the earth's shadow,  

Developed and maintained by Chris Peat, Heavens-Above GmbH. Please read the updated FAQ before sending e-mail. Imprint. DLR